WZZ9524 EPMO-LICJ

Flight info

Callsign WZZ9524
Flight time N/A
Altitude 34000
Route EVINA DCT LIGDI DCT SKARY DCT XOMBA DCT NIKAB DCT VEBAL DCT NOVLO DCT SPL DCT KATTI/N0448F350 DCT EKTOL DCT AMANO/N0371F190 M742 ROSAS
Aircraft A21N/M-SDE3FGHIRWY/LB1

Departure

Time 2026-04-30 12:56
Airport Warsaw Modlin Airport (EPMO)

Arrival

Time N/A
Airport Falcone–Borsellino Airport (LICJ)
Time Latitude Longitude Altitude Speed Heading
2026-04-30 12:25 52.44746 20.65258 339 ft 0 kts 205°
2026-04-30 12:47 52.44754 20.65264 338 ft 2 kts 205°
2026-04-30 12:48 52.44767 20.65275 338 ft 2 kts 201°
2026-04-30 12:48 52.44781 20.65273 338 ft 2 kts 147°
2026-04-30 12:48 52.44791 20.65253 338 ft 2 kts 101°
2026-04-30 12:48 52.44790 20.65229 338 ft 2 kts 74°
2026-04-30 12:49 52.44787 20.65208 338 ft 0 kts 84°
2026-04-30 12:51 52.44787 20.65214 338 ft 1 kts 84°
2026-04-30 12:51 52.44791 20.65255 337 ft 5 kts 81°
2026-04-30 12:52 52.44799 20.65333 337 ft 8 kts 82°
2026-04-30 12:52 52.44809 20.65439 337 ft 10 kts 82°
2026-04-30 12:52 52.44820 20.65567 338 ft 11 kts 82°
2026-04-30 12:52 52.44831 20.65695 340 ft 11 kts 83°
2026-04-30 12:53 52.44844 20.65839 340 ft 13 kts 81°
2026-04-30 12:53 52.44861 20.66003 339 ft 15 kts 81°
2026-04-30 12:53 52.44878 20.66184 339 ft 16 kts 82°
2026-04-30 12:53 52.44896 20.66380 339 ft 18 kts 81°
2026-04-30 12:54 52.44916 20.66588 338 ft 18 kts 82°
2026-04-30 12:54 52.44935 20.66791 338 ft 17 kts 81°
2026-04-30 12:54 52.44951 20.66964 338 ft 14 kts 82°
2026-04-30 12:54 52.45004 20.67067 337 ft 13 kts
2026-04-30 12:55 52.45101 20.67049 335 ft 15 kts 353°
2026-04-30 12:55 52.45208 20.67015 333 ft 16 kts 341°
2026-04-30 12:55 52.45283 20.66940 331 ft 10 kts 281°
2026-04-30 12:55 52.45274 20.66800 331 ft 19 kts 262°
2026-04-30 12:56 52.45216 20.66185 334 ft 90 kts 261°
2026-04-30 12:56 52.45086 20.64811 336 ft 150 kts 261°
2026-04-30 12:56 52.44905 20.62903 516 ft 181 kts 262°
2026-04-30 12:56 52.44700 20.60870 1193 ft 182 kts 263°
2026-04-30 12:57 52.44500 20.58866 1860 ft 179 kts 264°
2026-04-30 12:57 52.44296 20.56859 2362 ft 179 kts 264°
2026-04-30 12:57 52.44130 20.54853 2833 ft 179 kts 275°
2026-04-30 12:57 52.44587 20.53085 3272 ft 170 kts 322°
2026-04-30 12:58 52.45625 20.52346 3724 ft 169 kts 355°
2026-04-30 12:58 52.46846 20.52297 4040 ft 183 kts 359°
2026-04-30 12:58 52.48176 20.52223 4351 ft 198 kts 358°
2026-04-30 12:58 52.49593 20.52116 4630 ft 216 kts 358°
2026-04-30 12:59 52.51177 20.51984 4964 ft 233 kts 358°
2026-04-30 12:59 52.52805 20.51841 5611 ft 237 kts 358°
2026-04-30 12:59 52.54441 20.51695 6318 ft 239 kts 358°
2026-04-30 12:59 52.56077 20.51547 7031 ft 241 kts 359°
2026-04-30 13:00 52.57797 20.51458 7491 ft 252 kts
2026-04-30 13:00 52.59433 20.52391 8158 ft 255 kts 33°
2026-04-30 13:00 52.60640 20.54479 8896 ft 259 kts 57°
2026-04-30 13:00 52.61195 20.57298 9578 ft 267 kts 77°
2026-04-30 13:01 52.61459 20.60319 10223 ft 270 kts 77°
2026-04-30 13:01 52.61740 20.63351 10791 ft 273 kts 76°
2026-04-30 13:01 52.62040 20.66536 11102 ft 287 kts 76°
2026-04-30 13:01 52.62348 20.69865 11378 ft 302 kts 77°
2026-04-30 13:02 52.62662 20.73314 11822 ft 309 kts 77°
2026-04-30 13:02 52.62873 20.76803 12433 ft 313 kts 81°
2026-04-30 13:02 52.63025 20.80392 13076 ft 314 kts 81°
2026-04-30 13:02 52.63171 20.83959 13638 ft 316 kts 81°
2026-04-30 13:03 52.63317 20.87554 14250 ft 317 kts 81°
2026-04-30 13:03 52.63462 20.91165 14804 ft 318 kts 80°
2026-04-30 13:03 52.63603 20.94767 15332 ft 321 kts 81°
2026-04-30 13:03 52.63341 20.98480 15861 ft 337 kts 102°
2026-04-30 13:04 52.62174 21.01874 16371 ft 356 kts 124°
2026-04-30 13:04 52.60213 21.04532 16861 ft 371 kts 140°
2026-04-30 13:04 52.58059 21.06795 17292 ft 375 kts 141°
2026-04-30 13:04 52.55841 21.09116 17712 ft 379 kts 140°
2026-04-30 13:05 52.53625 21.11450 18350 ft 375 kts 140°
2026-04-30 13:05 52.51467 21.13734 18970 ft 372 kts 139°
2026-04-30 13:05 52.49283 21.16064 19397 ft 375 kts 139°
2026-04-30 13:06 52.44857 21.20788 20258 ft 381 kts 139°
2026-04-30 13:06 52.42605 21.23068 20685 ft 388 kts 146°
2026-04-30 13:06 52.39961 21.24262 21046 ft 408 kts 172°
2026-04-30 13:06 52.37128 21.23642 21468 ft 418 kts 198°
2026-04-30 13:07 52.34629 21.21303 21804 ft 421 kts 223°
2026-04-30 13:07 52.32733 21.17709 22188 ft 418 kts 239°
2026-04-30 13:07 52.31116 21.13732 22619 ft 418 kts 240°
2026-04-30 13:07 52.29487 21.09864 23012 ft 421 kts 238°
2026-04-30 13:08 52.27715 21.05986 23334 ft 426 kts 235°
2026-04-30 13:08 52.25793 21.02328 23682 ft 430 kts 230°
2026-04-30 13:08 52.23666 20.98896 24037 ft 434 kts 224°
2026-04-30 13:08 52.21411 20.95601 24375 ft 436 kts 223°
2026-04-30 13:09 52.19160 20.92362 24610 ft 440 kts 223°
2026-04-30 13:09 52.16858 20.89039 24862 ft 443 kts 223°
2026-04-30 13:09 52.14572 20.85730 25188 ft 445 kts 224°
2026-04-30 13:09 52.12257 20.82372 25509 ft 448 kts 224°
2026-04-30 13:10 52.09931 20.78998 25814 ft 451 kts 223°
2026-04-30 13:10 52.07597 20.75605 26130 ft 452 kts 224°
2026-04-30 13:10 52.05246 20.72196 26445 ft 454 kts 224°
2026-04-30 13:10 52.02908 20.68806 26759 ft 456 kts 223°
2026-04-30 13:11 52.00543 20.65390 27039 ft 458 kts 223°
2026-04-30 13:11 51.98143 20.61925 27269 ft 461 kts 224°
2026-04-30 13:11 51.95652 20.58630 27478 ft 466 kts 215°
2026-04-30 13:11 51.92898 20.56006 27750 ft 467 kts 204°
2026-04-30 13:12 51.89872 20.54027 28036 ft 467 kts 197°
2026-04-30 13:12 51.86820 20.52313 28225 ft 470 kts 196°
2026-04-30 13:12 51.83723 20.50612 28514 ft 471 kts 196°
2026-04-30 13:13 51.77561 20.47122 29029 ft 475 kts 197°
2026-04-30 13:13 51.74410 20.45297 29236 ft 478 kts 197°
2026-04-30 13:13 51.68146 20.41736 29734 ft 480 kts 194°
2026-04-30 13:14 51.64957 20.40351 30008 ft 478 kts 189°
2026-04-30 13:14 51.61689 20.39392 30238 ft 477 kts 184°
2026-04-30 13:14 51.55146 20.38388 30684 ft 478 kts 179°
2026-04-30 13:15 51.51804 20.37945 30878 ft 481 kts 180°
2026-04-30 13:15 51.45188 20.36953 31376 ft 483 kts 182°
2026-04-30 13:15 51.41871 20.36134 31601 ft 486 kts 187°
2026-04-30 13:16 51.38560 20.34889 31831 ft 490 kts 192°
2026-04-30 13:16 51.35310 20.33215 32033 ft 493 kts 197°
2026-04-30 13:16 51.32162 20.31136 32237 ft 495 kts 202°
2026-04-30 13:17 51.25980 20.26395 32688 ft 495 kts 204°
2026-04-30 13:17 51.22847 20.23979 32840 ft 497 kts 203°
2026-04-30 13:17 51.16610 20.19232 33138 ft 502 kts 203°
2026-04-30 13:18 51.13482 20.16871 33358 ft 502 kts 203°
2026-04-30 13:18 51.07195 20.12144 33666 ft 503 kts 203°
2026-04-30 13:18 51.04022 20.09766 33844 ft 503 kts 203°
2026-04-30 13:19 51.00867 20.07401 33952 ft 503 kts 204°
2026-04-30 13:19 50.97701 20.05037 34193 ft 503 kts 203°
2026-04-30 13:19 50.96660 20.04260 34244 ft 503 kts 203°
2026-04-30 13:20 50.87613 19.97528 34407 ft 505 kts 203°
2026-04-30 13:20 50.84076 19.94905 34327 ft 504 kts 204°
2026-04-30 13:20 50.80920 19.92559 34452 ft 503 kts 203°
2026-04-30 13:20 50.77754 19.90218 34382 ft 504 kts 203°
2026-04-30 13:21 50.71437 19.85554 34384 ft 502 kts 204°
2026-04-30 13:22 50.61974 19.78594 34342 ft 503 kts 204°
2026-04-30 13:22 50.52529 19.71680 34379 ft 498 kts 204°
2026-04-30 13:23 50.43125 19.64826 34376 ft 498 kts 204°
2026-04-30 13:24 50.30639 19.55771 34403 ft 496 kts 204°
2026-04-30 13:25 50.17970 19.47041 34367 ft 498 kts 202°
2026-04-30 13:26 50.02260 19.36365 34385 ft 493 kts 202°
2026-04-30 13:28 49.86592 19.25776 34374 ft 490 kts 202°
2026-04-30 13:28 49.77229 19.19478 34330 ft 490 kts 202°
2026-04-30 13:29 49.64743 19.11128 34314 ft 491 kts 202°
2026-04-30 13:31 49.49180 19.00790 34366 ft 489 kts 202°
2026-04-30 13:32 49.33318 18.91415 34366 ft 485 kts 199°
2026-04-30 13:33 49.20708 18.84388 34419 ft 484 kts 199°
2026-04-30 13:34 49.11237 18.79133 34386 ft 484 kts 199°
2026-04-30 13:35 48.98626 18.72170 34392 ft 482 kts 199°
2026-04-30 13:36 48.86082 18.65280 34347 ft 483 kts 199°
2026-04-30 13:36 48.76656 18.60130 34375 ft 481 kts 199°
2026-04-30 13:37 48.67246 18.55009 34350 ft 480 kts 200°
2026-04-30 13:38 48.58939 18.50503 34354 ft 479 kts 200°
2026-04-30 13:39 48.45357 18.43174 34337 ft 478 kts 200°
2026-04-30 13:40 48.37016 18.38692 34338 ft 476 kts 200°
2026-04-30 13:40 48.29769 18.34805 34345 ft 476 kts 199°
2026-04-30 13:41 48.23548 18.31485 34353 ft 475 kts 199°
2026-04-30 13:41 48.17369 18.28194 34359 ft 474 kts 199°
2026-04-30 13:42 48.11173 18.24898 34354 ft 473 kts 199°
2026-04-30 13:42 48.01909 18.19992 34347 ft 471 kts 199°
2026-04-30 13:43 47.96715 18.17247 34349 ft 474 kts 199°
2026-04-30 13:43 47.89511 18.13458 34347 ft 473 kts 200°
2026-04-30 13:44 47.83322 18.10210 34347 ft 471 kts 200°
2026-04-30 13:44 47.77109 18.06951 34347 ft 472 kts 200°
2026-04-30 13:45 47.67787 18.02541 34352 ft 470 kts 198°
2026-04-30 13:46 47.61543 17.99649 34368 ft 471 kts 198°
2026-04-30 13:46 47.55310 17.96776 34384 ft 471 kts 198°
2026-04-30 13:47 47.49094 17.93920 34380 ft 470 kts 198°
2026-04-30 13:47 47.42842 17.91045 34396 ft 471 kts 198°
2026-04-30 13:48 47.36620 17.88199 34370 ft 469 kts 198°
2026-04-30 13:48 47.30408 17.85361 34390 ft 469 kts 198°
2026-04-30 13:49 47.24173 17.82523 34358 ft 468 kts 198°
2026-04-30 13:49 47.17942 17.79694 34390 ft 468 kts 198°
2026-04-30 13:50 47.11729 17.76876 34372 ft 468 kts 198°
2026-04-30 13:50 47.02387 17.72655 34332 ft 467 kts 198°
2026-04-30 13:51 46.96219 17.69878 34328 ft 467 kts 198°
2026-04-30 13:51 46.90007 17.67085 34341 ft 467 kts 198°
2026-04-30 13:52 46.83800 17.64304 34332 ft 466 kts 198°
2026-04-30 13:52 46.77570 17.61521 34338 ft 466 kts 199°
2026-04-30 13:53 46.71383 17.58760 34344 ft 467 kts 198°
2026-04-30 13:53 46.66220 17.56462 34354 ft 467 kts 198°
2026-04-30 13:54 46.58978 17.53320 34316 ft 466 kts 197°
2026-04-30 13:54 46.52734 17.50836 34330 ft 466 kts 197°
2026-04-30 13:55 46.47567 17.48792 34357 ft 465 kts 197°
2026-04-30 13:55 46.40293 17.45904 34363 ft 465 kts 197°
2026-04-30 13:56 46.34073 17.43432 34340 ft 465 kts 197°
2026-04-30 13:56 46.27867 17.40973 34349 ft 464 kts 197°
2026-04-30 13:57 46.22671 17.38917 34337 ft 464 kts 197°
2026-04-30 13:57 46.15435 17.36062 34312 ft 464 kts 197°
2026-04-30 13:58 46.07156 17.32806 34347 ft 463 kts 197°
2026-04-30 13:59 45.99908 17.29962 34319 ft 462 kts 197°
2026-04-30 13:59 45.93781 17.27208 34319 ft 462 kts 199°
2026-04-30 14:00 45.87668 17.24421 34331 ft 462 kts 199°
2026-04-30 14:00 45.78486 17.20244 34327 ft 462 kts 199°
2026-04-30 14:01 45.72355 17.17467 34326 ft 461 kts 200°
2026-04-30 14:01 45.66242 17.14702 34332 ft 461 kts 200°
2026-04-30 14:02 45.61205 17.12425 34323 ft 460 kts 200°
2026-04-30 14:02 45.55089 17.09672 34328 ft 461 kts 200°
2026-04-30 14:03 45.48988 17.06931 34323 ft 460 kts 200°
2026-04-30 14:03 45.41886 17.03749 34333 ft 459 kts 200°
2026-04-30 14:04 45.36795 17.01471 34329 ft 459 kts 200°
2026-04-30 14:04 45.29691 16.98302 34334 ft 459 kts 200°
2026-04-30 14:05 45.23641 16.95614 34353 ft 459 kts 200°
2026-04-30 14:05 45.17491 16.93194 34329 ft 460 kts 198°
2026-04-30 14:06 45.09237 16.90018 34325 ft 459 kts 198°
2026-04-30 14:07 45.00026 16.86486 34330 ft 459 kts 199°
2026-04-30 14:08 44.90807 16.82966 34308 ft 458 kts 199°
2026-04-30 14:08 44.81557 16.79442 34285 ft 458 kts 199°
2026-04-30 14:09 44.75433 16.77115 34271 ft 458 kts 199°
2026-04-30 14:10 44.66174 16.73610 34281 ft 458 kts 199°
2026-04-30 14:10 44.59024 16.70912 34259 ft 458 kts 199°
2026-04-30 14:11 44.53921 16.68988 34253 ft 457 kts 199°
2026-04-30 14:11 44.47800 16.66692 34217 ft 458 kts 200°
2026-04-30 14:12 44.41666 16.64389 34227 ft 456 kts 200°
2026-04-30 14:12 44.35521 16.62084 34201 ft 457 kts 200°
2026-04-30 14:13 44.28383 16.59421 34189 ft 457 kts 200°
2026-04-30 14:13 44.23246 16.57508 34210 ft 457 kts 200°
2026-04-30 14:14 44.17137 16.55232 34186 ft 457 kts 200°
2026-04-30 14:14 44.10987 16.52959 34175 ft 454 kts 201°
2026-04-30 14:15 44.03873 16.50320 34164 ft 454 kts 201°
2026-04-30 14:15 43.98817 16.48452 34172 ft 453 kts 201°
2026-04-30 14:16 43.92720 16.46203 34181 ft 453 kts 201°
2026-04-30 14:16 43.86636 16.43965 34181 ft 453 kts 201°
2026-04-30 14:17 43.80525 16.41719 34188 ft 453 kts 201°
2026-04-30 14:17 43.74442 16.39493 34199 ft 453 kts 201°
2026-04-30 14:18 43.68327 16.37259 34188 ft 452 kts 201°
2026-04-30 14:18 43.59201 16.33938 34190 ft 452 kts 201°
2026-04-30 14:19 43.50082 16.30650 34159 ft 453 kts 199°
2026-04-30 14:20 43.43881 16.28945 34196 ft 454 kts 197°
2026-04-30 14:20 43.34602 16.26504 34192 ft 454 kts 197°
2026-04-30 14:21 43.28397 16.24886 34198 ft 453 kts 197°
2026-04-30 14:22 43.19164 16.22478 34174 ft 453 kts 197°
2026-04-30 14:22 43.09849 16.20059 34185 ft 452 kts 198°
2026-04-30 14:23 42.96515 16.16608 34175 ft 450 kts 198°
2026-04-30 14:24 42.88333 16.14492 34234 ft 450 kts 199°
2026-04-30 14:25 42.76054 16.11336 34195 ft 451 kts 198°
2026-04-30 14:26 42.66836 16.08976 34163 ft 450 kts 198°
2026-04-30 14:27 42.57657 16.06636 34158 ft 448 kts 199°
2026-04-30 14:27 42.51642 16.04609 34178 ft 441 kts 205°
2026-04-30 14:28 42.43224 16.00046 34165 ft 432 kts 213°
2026-04-30 14:28 42.37780 15.96556 34169 ft 433 kts 214°
2026-04-30 14:29 42.26876 15.89595 34441 ft 436 kts 214°
2026-04-30 14:30 42.17758 15.83791 34912 ft 438 kts 213°
2026-04-30 14:31 42.13152 15.80871 35165 ft 439 kts 213°
2026-04-30 14:31 42.04875 15.75635 35198 ft 439 kts 213°
2026-04-30 14:32 41.96607 15.70418 35196 ft 439 kts 214°
2026-04-30 14:33 41.91116 15.66961 35190 ft 438 kts 214°
2026-04-30 14:33 41.82814 15.61748 35175 ft 439 kts 213°
2026-04-30 14:34 41.77274 15.58277 35173 ft 439 kts 214°
2026-04-30 14:34 41.71780 15.54840 35181 ft 439 kts 213°
2026-04-30 14:35 41.63473 15.49659 35183 ft 440 kts 213°
2026-04-30 14:36 41.57937 15.46213 35193 ft 441 kts 213°
2026-04-30 14:36 41.52327 15.42729 35173 ft 441 kts 214°
2026-04-30 14:37 41.46753 15.39272 35188 ft 442 kts 213°
2026-04-30 14:37 41.41200 15.35835 35192 ft 442 kts 213°
2026-04-30 14:38 41.35607 15.32383 35183 ft 444 kts 213°
2026-04-30 14:38 41.29995 15.28926 35186 ft 443 kts 213°
2026-04-30 14:39 41.24431 15.25503 35180 ft 444 kts 213°
2026-04-30 14:39 41.18845 15.22073 35160 ft 444 kts 213°
2026-04-30 14:40 41.10503 15.16746 35136 ft 441 kts 217°
2026-04-30 14:40 41.05320 15.12553 35144 ft 437 kts 220°
2026-04-30 14:41 41.00160 15.08227 35136 ft 436 kts 220°
2026-04-30 14:41 40.95030 15.03933 35143 ft 438 kts 220°
2026-04-30 14:42 40.89888 14.99644 35133 ft 437 kts 220°
2026-04-30 14:42 40.84722 14.95342 35127 ft 437 kts 220°
2026-04-30 14:43 40.79590 14.91072 35122 ft 439 kts 220°
2026-04-30 14:43 40.74425 14.86787 35106 ft 439 kts 220°
2026-04-30 14:44 40.69276 14.82523 35098 ft 439 kts 220°
2026-04-30 14:44 40.64125 14.78262 35101 ft 440 kts 220°
2026-04-30 14:45 40.58932 14.73978 35103 ft 440 kts 220°
2026-04-30 14:45 40.53771 14.69725 35107 ft 441 kts 220°
2026-04-30 14:46 40.48567 14.65447 35093 ft 441 kts 220°
2026-04-30 14:46 40.43378 14.61186 35080 ft 441 kts 220°
2026-04-30 14:47 40.38173 14.56924 35088 ft 441 kts 220°
2026-04-30 14:47 40.32980 14.52678 35074 ft 441 kts 220°
2026-04-30 14:48 40.27773 14.48428 35066 ft 442 kts 220°
2026-04-30 14:48 40.22566 14.44187 35058 ft 442 kts 220°
2026-04-30 14:49 40.17333 14.39929 35052 ft 442 kts 220°
2026-04-30 14:49 40.12137 14.35713 35048 ft 442 kts 220°
2026-04-30 14:50 40.04289 14.29357 35056 ft 443 kts 220°
2026-04-30 14:51 39.96428 14.23007 35051 ft 444 kts 220°
2026-04-30 14:52 39.88537 14.16652 35063 ft 445 kts 220°
2026-04-30 14:52 39.80668 14.10331 35057 ft 445 kts 219°
2026-04-30 14:53 39.72783 14.04017 35055 ft 444 kts 219°
2026-04-30 14:54 39.62259 13.95616 35042 ft 445 kts 220°
2026-04-30 14:55 39.54360 13.89330 35041 ft 443 kts 220°
2026-04-30 14:56 39.43790 13.81108 35050 ft 449 kts 216°
2026-04-30 14:57 39.35027 13.76384 34469 ft 459 kts 207°
2026-04-30 14:57 39.28990 13.73654 32718 ft 467 kts 206°
2026-04-30 14:58 39.22943 13.70939 31721 ft 456 kts 206°
2026-04-30 14:58 39.19950 13.69594 31223 ft 451 kts 206°
2026-04-30 14:58 39.14113 13.66968 30155 ft 443 kts 206°
2026-04-30 14:59 39.08369 13.64378 29093 ft 435 kts 206°
2026-04-30 15:00 38.99897 13.60579 27548 ft 424 kts 206°
2026-04-30 15:00 38.94391 13.58113 26543 ft 416 kts 206°
2026-04-30 15:01 38.88977 13.55690 25515 ft 410 kts 205°
2026-04-30 15:01 38.86388 13.54306 24973 ft 399 kts 217°
2026-04-30 15:01 38.82735 13.49442 23972 ft 374 kts 242°
2026-04-30 15:02 38.81334 13.46642 23389 ft 373 kts 242°
2026-04-30 15:02 38.79963 13.43887 22828 ft 372 kts 243°
2026-04-30 15:03 38.75807 13.35605 21328 ft 364 kts 242°
2026-04-30 15:03 38.73088 13.30225 20364 ft 360 kts 241°
2026-04-30 15:04 38.70380 13.24882 19393 ft 355 kts 241°
2026-04-30 15:04 38.66387 13.17023 17960 ft 350 kts 240°
2026-04-30 15:05 38.62442 13.09280 16521 ft 344 kts 240°
2026-04-30 15:06 38.59843 13.04190 15596 ft 341 kts 240°
2026-04-30 15:06 38.57266 12.99149 14664 ft 339 kts 240°
2026-04-30 15:07 38.54679 12.94100 13692 ft 336 kts 240°
2026-04-30 15:07 38.52140 12.89150 12795 ft 333 kts 240°
2026-04-30 15:08 38.49624 12.84247 11937 ft 328 kts 240°
2026-04-30 15:08 38.45925 12.77067 10825 ft 316 kts 239°
2026-04-30 15:09 38.43376 12.72672 10221 ft 308 kts 220°
2026-04-30 15:09 38.39335 12.71947 9635 ft 306 kts 158°
2026-04-30 15:10 38.35847 12.74919 9055 ft 297 kts 142°
2026-04-30 15:11 38.35876 12.83615 8126 ft 261 kts 58°
2026-04-30 15:11 38.37546 12.87761 8027 ft 264 kts 63°
2026-04-30 15:12 38.39526 12.94049 7985 ft 246 kts 88°
2026-04-30 15:13 38.37897 12.97614 7980 ft 244 kts 154°
2026-04-30 15:14 38.31520 12.99788 7964 ft 238 kts 210°
2026-04-30 15:14 38.29010 12.94668 7279 ft 234 kts 250°
2026-04-30 15:16 38.25847 12.85180 5852 ft 233 kts 248°
2026-04-30 15:17 38.24964 12.77538 5329 ft 227 kts 296°
2026-04-30 15:18 38.29847 12.70850 5349 ft 222 kts
2026-04-30 15:19 38.32709 12.74931 5367 ft 229 kts 89°